Regional Weather Roundup
Issued by NWS

Home | Current Version | Previous Version | Text Only | Print | Product List | Glossary On
Versions: 1 2 3 4 5 6 7 8 9 10 11 12 13 14 15 16 17 18 19 20 21 22 23 24 25 26 27 28 29 30 31 32 33 34 35 36 37 38 39 40 41 42 43 44 45 46 47 48 49 50
000
ASUS43 KLSX 222107
RWRMO

WEATHER SUMMARY FOR MISSOURI
NATIONAL WEATHER SERVICE SPRINGFIELD MO
300 PM CST SAT NOV 22 2014

NOTE: "FAIR" INDICATES FEW OR NO CLOUDS BELOW 12,000 FEET WITH NO
       SIGNIFICANT WEATHER AND/OR OBSTRUCTIONS TO VISIBILITY.
       CURRENT SKY AND/OR WEATHER CONDITIONS ARE NOT AVAILABLE FOR
       CHILLICOTHE AND FARMINGTON.

MOZ001>031-035>038-043-044-053-054-222200-
...NORTHERN AND WESTERN MISSOURI...

CITY           SKY/WX    TMP DP  RH WIND       PRES   REMARKS
KANSAS CTY INT CLOUDY    58  54  86 S15       29.80F
KANSAS C DTWN  CLOUDY    61  52  72 S16       29.81S
ST JOSEPH      CLOUDY    56  55  97 S13       29.78F
CHILLICOTHE      N/A     60  53  77 S9        29.82F
KIRKSVILLE     CLOUDY    58  52  80 S9        29.83F

$$
MOZ066>068-077>081-088>096-101>105-222200-
...SOUTHWEST MISSOURI...

CITY           SKY/WX    TMP DP  RH WIND       PRES   REMARKS
SPRINGFIELD    CLOUDY    54  52  93 S14G23    29.92F
JOPLIN         CLOUDY    58  53  84 S15       29.88F

$$
MOZ032>034-039>042-045>050-055>058-069>072-222200-
...CENTRAL MISSOURI...

CITY           SKY/WX    TMP DP  RH WIND       PRES   REMARKS
COLUMBIA       CLOUDY    60  50  69 S17       29.89F
JEFFERSON CITY CLOUDY    60  50  69 S13G23    29.91F
ROLLA          CLOUDY    54  49  83 S16G25    29.92F
SEDALIA        CLOUDY    61  50  67 S13       29.88S
WHITEMAN AFB   CLOUDY    60  52  73 SW22G29   29.85S
WARRENSBURG    CLOUDY    59  50  72 S16G25    29.85S
OSAGE BEACH    CLOUDY    57  48  72 S8        29.91F

$$
MOZ051-052-059>065-222200-
...EAST CENTRAL MISSOURI...

CITY           SKY/WX    TMP DP  RH WIND       PRES   REMARKS
ST LOUIS INTL  LGT RAIN  55  48  76 S15G26    29.97F
SPIRIT OF STL  LGT RAIN  54  50  86 SW5       29.96F
ST CHARLES     CLOUDY    58  48  69 S17G26    29.95F

$$
MOZ072>076-082>087-097>100-106>115-222200-
...SOUTH CENTRAL AND SOUTHEAST MISSOURI...

CITY           SKY/WX    TMP DP  RH WIND       PRES   REMARKS
CAPE GIRARDEAU PTSUNNY   62  46  55 S13       30.06F
FARMINGTON     CLOUDY    54  50  87 SE14      30.02F
POPLAR BLUFF   PTSUNNY   62  44  51 SW8       30.04F
WEST PLAINS    LGT RAIN  51  49  92 SW10      30.03F FOG

$$


USA.gov is the U.S. government's official web portal to all federal, state and local government web resources and services.